Cumberland, WV

7:20 PM EDT on May 23, 2018 (GMT -0400)
Greater Cumberland Regional

Weather History for KCBE - April, 2014

Change the Weather History Date:

Wednesday, April 30, 2014

  Actual Average (KMRB) Record (KMRB)
Temperature  
Mean Temperature 50 °F -  
Max Temperature 53 °F 70 °F 91 °F (1974)
Min Temperature 46 °F 46 °F 30 °F (1944)
Degree Days  
Heating Degree Days 16    
Moisture  
Dew Point 48 °F    
Average Humidity 97    
Maximum Humidity 100    
Minimum Humidity 88    
Precipitation  
Precipitation 0.00 in - - ()
Sea Level Pressure  
Sea Level Pressure 30.05 in    
Wind  
Wind Speed 1 mph (North)    
Max Wind Speed 6 mph    
Max Gust Speed -    
Visibility 5 miles    
Events      
Averages and records for this station are not official NWS values.
T = Trace of Precipitation, MM = Missing Value Source: NWS Daily Summary

Daily Weather History Graph

Daily Weather History Graph

Search for Another Location

Airport or City:

Astronomy

Apr. 30, 2014 Rise Set
Actual Time 6:17 AM EDT 8:08 PM EDT
Civil Twilight 5:48 AM EDT 8:37 PM EDT
Nautical Twilight 5:12 AM EDT 9:12 PM EDT
Astronomical Twilight 4:35 AM EDT 9:50 PM EDT
Moon 7:16 AM EDT (4/30) 9:45 PM EDT (4/30)
Length of Visible Light 14h 49m
Length of Day
13h 50m
New Moon, 2% of the Moon is Illuminated
Apr 30
New Moon
May 6
First Quarter
May 14
Full
May 21
Last Quarter
May 28
New

Hourly Weather History & Observations

Time (EDT) Temp. Windchill Dew Point Humidity Pressure Visibility Wind Dir Wind Speed Gust Speed Precip Events Conditions
12:12 AM 46.4 °F - 46.4 °F 100% 30.21 in 2.0 mi Calm Calm - N/A   Overcast
12:32 AM 46.4 °F 45.2 °F 46.4 °F 100% 30.20 in 2.5 mi NNW 3.5 mph - N/A   Overcast
12:52 AM 46.4 °F - 46.4 °F 100% 30.20 in 4.0 mi Calm Calm - N/A   Overcast
1:12 AM 46.4 °F - 46.4 °F 100% 30.20 in 3.0 mi Calm Calm - N/A   Overcast
1:32 AM 46.4 °F - 46.4 °F 100% 30.19 in 4.0 mi Calm Calm - N/A   Overcast
1:52 AM 46.4 °F - 46.4 °F 100% 30.18 in 3.0 mi Calm Calm - N/A   Overcast
2:12 AM 46.4 °F 45.2 °F 46.4 °F 100% 30.17 in 4.0 mi North 3.5 mph - N/A   Overcast
2:32 AM 46.4 °F 45.2 °F 46.4 °F 100% 30.17 in 5.0 mi North 3.5 mph - N/A   Overcast
2:52 AM 46.4 °F - 46.4 °F 100% 30.16 in 5.0 mi Calm Calm - N/A   Overcast
3:12 AM 46.4 °F - 46.4 °F 100% 30.16 in 3.0 mi Calm Calm - N/A   Overcast
3:32 AM 46.4 °F - 46.4 °F 100% 30.16 in 7.0 mi Calm Calm - N/A   Overcast
3:52 AM 46.4 °F 45.2 °F 46.4 °F 100% 30.16 in 7.0 mi North 3.5 mph - N/A   Overcast
4:12 AM 46.4 °F 44.3 °F 46.4 °F 100% 30.15 in 4.0 mi NNE 4.6 mph - N/A   Overcast
4:32 AM 46.4 °F - 46.4 °F 100% 30.16 in 3.0 mi Calm Calm - N/A   Overcast
4:52 AM 46.4 °F 45.2 °F 46.4 °F 100% 30.14 in 4.0 mi North 3.5 mph - N/A   Overcast
5:12 AM 46.4 °F 45.2 °F 44.6 °F 93% 30.14 in 4.0 mi NNW 3.5 mph - N/A   Overcast
5:32 AM 46.4 °F - 44.6 °F 93% 30.15 in 5.0 mi Calm Calm - N/A   Overcast
5:52 AM 46.4 °F - 44.6 °F 93% - 2.5 mi Calm Calm - N/A   Overcast
6:12 AM 46.4 °F 45.2 °F 44.6 °F 93% - 2.5 mi North 3.5 mph - N/A   Overcast
6:32 AM 46.4 °F 45.2 °F 44.6 °F 93% 30.14 in 2.5 mi North 3.5 mph - N/A   Overcast
6:53 AM 46.4 °F - 44.6 °F 93% 30.15 in 1.8 mi Calm Calm - N/A   Overcast
7:13 AM 46.4 °F - 44.6 °F 93% 30.15 in 1.8 mi Calm Calm - N/A   Overcast
7:33 AM 46.4 °F - 44.6 °F 93% 30.15 in 4.0 mi Calm Calm - N/A   Overcast
7:53 AM 46.4 °F - 44.6 °F 93% 30.14 in 2.5 mi Calm Calm - N/A   Overcast
8:13 AM 46.4 °F 45.2 °F 46.4 °F 100% 30.13 in 4.0 mi North 3.5 mph - N/A   Overcast
8:33 AM 46.4 °F 45.2 °F 46.4 °F 100% 30.12 in 4.0 mi North 3.5 mph - N/A   Overcast
8:53 AM 46.4 °F - 46.4 °F 100% 30.12 in 7.0 mi Calm Calm - N/A   Overcast
9:13 AM 46.4 °F - 46.4 °F 100% 30.12 in 2.5 mi Calm Calm - N/A   Overcast
9:33 AM 46.4 °F - 46.4 °F 100% 30.12 in 2.0 mi Calm Calm - N/A   Overcast
9:53 AM 46.4 °F - 46.4 °F 100% 30.11 in 1.5 mi Calm Calm - N/A   Overcast
10:13 AM 46.4 °F - 46.4 °F 100% 30.10 in 2.0 mi Calm Calm - N/A   Overcast
10:33 AM 46.4 °F 45.2 °F 46.4 °F 100% 30.09 in 1.8 mi North 3.5 mph - N/A   Overcast
10:53 AM 46.4 °F 45.2 °F 46.4 °F 100% 30.09 in 2.0 mi North 3.5 mph - N/A   Overcast
11:13 AM 46.4 °F - 46.4 °F 100% 30.09 in 2.0 mi Calm Calm - N/A   Overcast
11:33 AM 46.4 °F - 46.4 °F 100% 30.09 in 7.0 mi Calm Calm - N/A   Overcast
11:53 AM 46.4 °F - 46.4 °F 100% 30.08 in 10.0 mi Calm Calm - N/A   Overcast
12:13 PM 48.2 °F - 46.4 °F 93% 30.07 in 5.0 mi Calm Calm - N/A   Overcast
12:33 PM 48.2 °F - 46.4 °F 93% 30.07 in 3.0 mi Calm Calm - N/A   Overcast
12:53 PM 48.2 °F - 48.2 °F 100% 30.05 in 2.0 mi WNW 3.5 mph - N/A   Overcast
1:13 PM 48.2 °F - 48.2 °F 100% 30.05 in 7.0 mi Calm Calm - N/A   Overcast
1:33 PM 50.0 °F - 48.2 °F 94% 30.04 in 5.0 mi Calm Calm - N/A   Overcast
1:53 PM 50.0 °F - 48.2 °F 94% 30.04 in 1.8 mi Calm Calm - N/A   Overcast
2:13 PM 50.0 °F - 48.2 °F 94% 30.03 in 3.0 mi Calm Calm - N/A   Overcast
2:33 PM 50.0 °F - 48.2 °F 94% 30.02 in 7.0 mi Calm Calm - N/A   Overcast
2:53 PM 51.8 °F - 50.0 °F 94% 30.01 in 10.0 mi Calm Calm - N/A   Overcast
3:13 PM 51.8 °F - 50.0 °F 94% 30.00 in 10.0 mi Calm Calm - N/A   Overcast
3:34 PM 51.8 °F - 50.0 °F 94% 29.99 in 10.0 mi Calm Calm - N/A   Overcast
3:54 PM 51.8 °F - 50.0 °F 94% 29.99 in 10.0 mi Calm Calm - N/A   Overcast
4:14 PM 51.8 °F - 50.0 °F 94% 29.97 in 10.0 mi Calm Calm - N/A   Overcast
4:34 PM 51.8 °F - 50.0 °F 94% 29.96 in 10.0 mi Calm Calm - N/A   Overcast
4:54 PM 51.8 °F - 50.0 °F 94% 29.95 in 10.0 mi Calm Calm - N/A   Overcast
5:14 PM 53.6 °F - 50.0 °F 88% 29.95 in 10.0 mi Calm Calm - N/A   Overcast
5:34 PM 53.6 °F - 50.0 °F 88% 29.95 in 10.0 mi Calm Calm - N/A   Overcast
5:54 PM 53.6 °F - 50.0 °F 88% 29.95 in 10.0 mi Calm Calm - N/A   Overcast
6:14 PM 53.6 °F - 50.0 °F 88% 29.95 in 10.0 mi Calm Calm - N/A   Overcast
6:34 PM 51.8 °F - 50.0 °F 94% 29.94 in 10.0 mi NNE 4.6 mph - N/A   Overcast
6:54 PM 51.8 °F - 50.0 °F 94% 29.92 in 10.0 mi NNE 4.6 mph - N/A   Overcast
7:14 PM 51.8 °F - 50.0 °F 94% 29.92 in 5.0 mi Calm Calm - N/A   Overcast
7:34 PM 51.8 °F - 51.8 °F 100% 29.91 in 7.0 mi Calm Calm - N/A   Overcast
7:54 PM 51.8 °F - 51.8 °F 100% 29.90 in 7.0 mi Calm Calm - N/A   Overcast
8:14 PM 51.8 °F - 51.8 °F 100% 29.90 in 5.0 mi Calm Calm - N/A   Overcast
8:34 PM 51.8 °F - 51.8 °F 100% 29.90 in 4.0 mi Calm Calm - N/A   Overcast
8:54 PM 51.8 °F - 51.8 °F 100% 29.90 in 5.0 mi Calm Calm - N/A   Overcast
9:14 PM 51.8 °F - 51.8 °F 100% 29.91 in 4.0 mi Calm Calm - N/A   Overcast
9:34 PM 51.8 °F - 51.8 °F 100% 29.93 in 5.0 mi WNW 5.8 mph - N/A   Overcast
9:54 PM 51.8 °F - 51.8 °F 100% 29.92 in 7.0 mi NNE 3.5 mph - N/A   Overcast
10:14 PM 51.8 °F - 51.8 °F 100% 29.93 in 5.0 mi Calm Calm - N/A   Overcast
10:34 PM 51.8 °F - 51.8 °F 100% 29.92 in 7.0 mi Calm Calm - N/A   Overcast
10:54 PM 51.8 °F - 51.8 °F 100% 29.92 in 7.0 mi Calm Calm - N/A   Overcast
11:14 PM 51.8 °F - 51.8 °F 100% 29.92 in 7.0 mi SW 5.8 mph - N/A   Overcast
11:34 PM 51.8 °F - 51.8 °F 100% 29.92 in 5.0 mi SSE 3.5 mph - N/A   Overcast
11:54 PM 51.8 °F - 51.8 °F 100% 29.92 in 3.0 mi Calm Calm - N/A   Overcast